[[{"header":{"parameterUnit":"m.s-1","parameterCategory":2,"la1":30.2991,"la2":30.254,"lo1":-89.0895,"lo2":-89.0444,"dy":0.0017,"dx":0.0017,"nx":28,"ny":28,"refTime":"2025-01-24T09:00:00:Z","depth":"0","parameterNumber":2,"parameterNumberName":"U-component_of_CURRENTS"},"data":[0,0,0,0,0,0,0,0,0,0,0,0,0,0,0,0,0,0,0,0,0,0,0,0,0,0,0,0,0,0,0,0,0,0,0,0,0,0,0,0,0,0,0,0,0,0,0,0,0,0,0,0,0,0,0,0,0,0,0.337,0.337,0,0.3398,0.3398,0.3398,0.3373,0.3372,0.3371,0.3371,0.3342,0.3342,0.3342,0,0,0,0,0,0,0,0,0,0,0,0,0,0.3324,0.3324,0.337,0.337,0.3371,0.3398,0.3398,0.3398,0.3373,0.3372,0.3371,0.337,0.3342,0.3342,0.3342,0,0,0,0,0,0,0,0,0,0,0,0,0,0.3344,0.3325,0.337,0.3364,0.3364,0.3398,0.3398,0.3398,0.3373,0.3372,0.3371,0.337,0.3342,0.3342,0.3342,0.3364,0,0,0.3342,0.3342,0,0,0,0,0,0,0,0,0.3343,0.3345,0.3364,0.3365,0.3365,0.3384,0.3372,0.3385,0.3374,0.3366,0.3371,0.3369,0.3354,0.3353,0.3357,0.3363,0.3361,0.3342,0.3342,0.3342,0.3342,0,0,0,0,0,0,0,0.3342,0.3344,0.3378,0.3365,0.3365,0.3371,0.3372,0.3375,0.3362,0.3367,0.3366,0.3375,0.3353,0.3357,0.3356,0.3361,0.3342,0.3342,0.3342,0.3342,0.3437,0.344,0,0,0,0,0,0,0.3344,0.3343,0.3377,0.3379,0.3355,0.3373,0.3374,0.3376,0.3364,0.3362,0.3376,0.3373,0.3358,0.3356,0.3355,0.3465,0.3342,0.3342,0.3342,0.3435,0.3438,0.3441,0,0,0,0,0,0,0.3343,0.3347,0.3376,0.3364,0.3369,0.3375,0.3378,0.3377,0.3382,0.3371,0.3368,0.338,0.3357,0.3355,0.3371,0.346,0.3342,0.3342,0.3432,0.3436,0.3439,0.363,0,0,0,0,0,0,0.3342,0.3346,0.3363,0.3365,0.337,0.3423,0.3379,0.3379,0.339,0.3387,0.3375,0.3371,0.3356,0.3372,0.3371,0.3458,0.3341,0.3428,0.3433,0.3438,0.3621,0.364,0.3657,0,0,0,0,0,0.334,0.339,0.3364,0.3369,0.3388,0.3426,0.343,0.3427,0.3392,0.342,0.3399,0.3371,0.3403,0.3373,0.3372,0.3461,0.3426,0.3432,0.3438,0.3612,0.3636,0.3656,0,0,0,0,0,0,0.3417,0.3391,0.3364,0.3411,0.3421,0.3423,0.3468,0.3433,0.3438,0.3439,0.3394,0.3392,0.3443,0.3414,0.3382,0.35,0.3415,0.342,0.3548,0.357,0.3588,0.3643,0.3341,0,0,0,0,0,0.343,0.344,0.3426,0.3471,0.3481,0.3463,0.3479,0.347,0.3469,0.347,0.345,0.3445,0.3469,0.3484,0.3489,0.3548,0.3585,0.3604,0.3623,0.3638,0.3682,0.3792,0.3826,0.346,0.346,0.346,0,0,0.3476,0.3466,0.3475,0.3485,0.3496,0.3552,0.3472,0.3517,0.3569,0.3468,0.3532,0.35,0.3492,0.3567,0.3589,0.3555,0.377,0.3646,0.366,0.3695,0.3802,0.3838,0.387,0.3464,0.3463,0.3462,0,0,0.3586,0.3564,0.3608,0.363,0.3648,0.3637,0.3646,0.3642,0.365,0.3692,0.3643,0.3665,0.3678,0.3711,0.3725,0.3843,0.3852,0.3834,0.399,0.4097,0.4129,0.4158,0.4294,0.4333,0.3856,0.3856,0.3857,0,0.3654,0.3689,0.3638,0.3709,0.3751,0.3678,0.3762,0.3775,0.3774,0.3801,0.3743,0.3793,0.3769,0.3889,0.3932,0.3895,0.3956,0.3912,0.4127,0.4155,0.4181,0.4313,0.4354,0.3866,0.3865,0.3864,0.3863,0,0.3794,0.3835,0.3884,0.3924,0.3963,0.4029,0.4031,0.4053,0.4024,0.4029,0.4103,0.4067,0.41,0.4101,0.4058,0.4232,0.4219,0.413,0.4082,0.4231,0.4359,0.4398,0.388,0.3877,0.3874,0.3871,0,0,0.3907,0.3964,0.3978,0.4027,0.4079,0.4123,0.422,0.4279,0.4334,0.4339,0.4429,0.4469,0.4417,0.4429,0.4372,0.4463,0.4699,0.4392,0.4392,0.4549,0.4982,0.4865,0.4896,0.4649,0.4655,0.4661,0.5013,0,0.4031,0.4176,0.4168,0.4316,0.4397,0.4381,0.447,0.4522,0.4527,0.4589,0.4592,0.4639,0.4554,0.4554,0.465,0.4659,0.4805,0.4615,0.4795,0.4802,0.4697,0.4938,0.4589,0.4862,0.5051,0.5057,0.5062,0,0.4163,0.4237,0.4395,0.4491,0.4524,0.4596,0.4697,0.4765,0.4841,0.4847,0.4908,0.487,0.5003,0.487,0.5091,0.4973,0.5028,0.5044,0.5055,0.491,0.4758,0.4732,0.4925,0.4721,0.5121,0.5117,0.5112,0,0.425,0.4388,0.4504,0.4554,0.466,0.4724,0.4771,0.4854,0.4898,0.5003,0.503,0.5161,0.5206,0.5311,0.5331,0.5241,0.556,0.5428,0.5409,0.5402,0.5123,0.5079,0.5151,0.5648,0.5647,0.5646,0.5645,0,0.4378,0.4483,0.4549,0.4621,0.475,0.4811,0.4918,0.4976,0.5051,0.5129,0.5157,0.5242,0.5315,0.5448,0.5475,0.559,0.5702,0.5526,0.5509,0.5179,0.5138,0.4951,0.4888,0.5659,0.5656,0.5653,0.5651,0,0.4499,0.4526,0.4665,0.4768,0.4791,0.4896,0.4961,0.5019,0.51,0.5201,0.5236,0.5374,0.5557,0.5625,0.5815,0.5766,0.5696,0.588,0.5502,0.5434,0.5154,0.5113,0.5151,0.5011,0.5947,0.5947,0.5947,0,0.4626,0.4691,0.4759,0.478,0.4825,0.4931,0.4965,0.5039,0.5085,0.5276,0.533,0.5534,0.5614,0.586,0.5824,0.5914,0.5738,0.5662,0.5411,0.5179,0.5125,0.4978,0.4846,0.5152,0.5145,0.514,0.5135,0,0.4843,0.4806,0.4853,0.486,0.4888,0.4935,0.4999,0.5033,0.5131,0.5185,0.5336,0.5423,0.5626,0.5534,0.5624,0.5625,0.5329,0.555,0.5397,0.4624,0.4385,0.4221,0.4917,0.5085,0.509,0.5094,0.5096,0.5098,0.4961,0.4987,0.4923,0.4924,0.4919,0.4897,0.4851,0.4907,0.4927,0.4914,0.5188,0.5134,0.5169,0.5208,0.5227,0.4941,0.5044,0.4698,0.4721,0.4637,0.4324,0.4944,0.5007,0.5011,0.5015,0.5018,0.5021,0,0.5039,0.4972,0.4984,0.4874,0.4771,0.4799,0.4796,0.4678,0.4594,0.4659,0.4671,0.4531,0.4412,0.4436,0.4261,0.4088,0.3918,0.3967,0.3639,0.359,0.4201,0.3972,0.3701,0.3701,0.3701,0.3701,0.3702,0.3702,0.504,0.4974,0.4916,0.4703,0.4605,0.4381,0.4316,0.4204,0.4162,0.3925,0.3742,0.3746,0.3856,0.3769,0.3526,0.3441,0.3203,0.3036,0.3166,0.3499,0.3565,0.3627,0.3394,0.3005,0.3005,0.2285,0.2279,0.2275]},{"header":{"parameterUnit":"m.s-1","parameterCategory":2,"la1":30.2991,"la2":30.254,"lo1":-89.0895,"lo2":-89.0444,"dy":0.0017,"dx":0.0017,"nx":28,"ny":28,"refTime":"2025-01-24T09:00:00:Z","depth":"0","parameterNumber":3,"parameterNumberName":"V-component_of_CURRENTS"},"data":[0,0,0,0,0,0,0,0,0,0,0,0,0,0,0,0,0,0,0,0,0,0,0,0,0,0,0,0,0,0,0,0,0,0,0,0,0,0,0,0,0,0,0,0,0,0,0,0,0,0,0,0,0,0,0,0,0,0,-0.0075,-0.0076,0,-0.0143,-0.0144,-0.0145,-0.0212,-0.0213,-0.0214,-0.0215,-0.0291,-0.0292,-0.0294,0,0,0,0,0,0,0,0,0,0,0,0,0,-0.0073,-0.0073,-0.0075,-0.0076,-0.0076,-0.0143,-0.0144,-0.0145,-0.0212,-0.0213,-0.0214,-0.0215,-0.0291,-0.0292,-0.0294,0,0,0,0,0,0,0,0,0,0,0,0,0,-0.0102,-0.0073,-0.0075,-0.0117,-0.0121,-0.0143,-0.0144,-0.0145,-0.0212,-0.0213,-0.0214,-0.0215,-0.029,-0.0292,-0.0294,-0.0284,0,0,-0.03,-0.0301,0,0,0,0,0,0,0,0,-0.0101,-0.0102,-0.011,-0.0114,-0.0119,-0.0169,-0.0172,-0.0192,-0.0212,-0.0179,-0.0215,-0.0216,-0.0249,-0.0254,-0.0267,-0.0288,-0.0291,-0.03,-0.0302,-0.0302,-0.0303,0,0,0,0,0,0,0,-0.0098,-0.01,-0.0104,-0.011,-0.0116,-0.0156,-0.0161,-0.0176,-0.0208,-0.0182,-0.0187,-0.0191,-0.0252,-0.0265,-0.0269,-0.0292,-0.03,-0.0302,-0.0303,-0.0304,-0.0339,-0.0338,0,0,0,0,0,0,-0.0081,-0.0098,-0.0101,-0.0105,-0.011,-0.0155,-0.016,-0.0153,-0.0208,-0.0217,-0.019,-0.0194,-0.0261,-0.0267,-0.0272,-0.0271,-0.0302,-0.0304,-0.0305,-0.0339,-0.0339,-0.0338,0,0,0,0,0,0,-0.0081,-0.0081,-0.0099,-0.0103,-0.0108,-0.0153,-0.0145,-0.0154,-0.0166,-0.0214,-0.0224,-0.0193,-0.0262,-0.0269,-0.0284,-0.0274,-0.0305,-0.0307,-0.0339,-0.0339,-0.0339,-0.0264,0,0,0,0,0,0,-0.008,-0.008,-0.0072,-0.0101,-0.0107,-0.0099,-0.0144,-0.0154,-0.0166,-0.0172,-0.0219,-0.0228,-0.0264,-0.028,-0.0286,-0.0278,-0.0309,-0.034,-0.0339,-0.0339,-0.0267,-0.0261,-0.0256,0,0,0,0,0,-0.008,-0.0061,-0.0071,-0.0072,-0.0093,-0.0098,-0.0104,-0.0143,-0.0165,-0.016,-0.0197,-0.0226,-0.0282,-0.0281,-0.0288,-0.028,-0.034,-0.0339,-0.0339,-0.0269,-0.0262,-0.0257,0,0,0,0,0,0,-0.0061,-0.0067,-0.0079,-0.0064,-0.0075,-0.0109,-0.0112,-0.0132,-0.0158,-0.0168,-0.0215,-0.0226,-0.0239,-0.0266,-0.0265,-0.0291,-0.0318,-0.0318,-0.0263,-0.0257,-0.0252,-0.0228,-0.031,0,0,0,0,0,-0.0049,-0.0037,-0.0051,-0.004,-0.0042,-0.0074,-0.0082,-0.0103,-0.0128,-0.0141,-0.0172,-0.021,-0.024,-0.0253,-0.0282,-0.0285,-0.0282,-0.0288,-0.0282,-0.0278,-0.0264,-0.0252,-0.0244,-0.0336,-0.0336,-0.0336,0,0,-0.0048,-0.0043,-0.0043,-0.0035,-0.0051,-0.0051,-0.0082,-0.0086,-0.0091,-0.0143,-0.0157,-0.0188,-0.0237,-0.025,-0.0259,-0.0272,-0.0246,-0.0277,-0.0272,-0.0261,-0.0251,-0.0241,-0.0233,-0.0336,-0.0336,-0.0336,0,0,-0.0039,-0.0023,-0.0019,-0.0018,-0.0024,-0.003,-0.0024,-0.0045,-0.0059,-0.0068,-0.0115,-0.013,-0.0174,-0.0202,-0.0225,-0.0202,-0.0219,-0.0222,-0.0173,-0.0162,-0.0154,-0.0147,-0.0109,-0.0099,-0.0219,-0.0219,-0.0218,0,-0.0052,-0.0029,-0.0019,-0.0014,-0.0014,-0.0014,-0.0015,-0.0018,-0.0042,-0.0046,-0.0064,-0.0112,-0.015,-0.0164,-0.0166,-0.0188,-0.0178,-0.0192,-0.0152,-0.0146,-0.0139,-0.0103,-0.0093,-0.0215,-0.0215,-0.0216,-0.0216,0,-0.0043,-0.0027,-0.0019,-0.0008,0.0001,0.0008,0.001,0.0024,0.0017,0.0003,-0.0002,-0.004,-0.007,-0.0084,-0.0122,-0.0103,-0.0107,-0.0145,-0.0162,-0.0125,-0.009,-0.008,-0.021,-0.0211,-0.0212,-0.0213,0,0,-0.0075,-0.0031,-0.0027,-0.0019,0.0005,0.0013,0.0036,0.005,0.0064,0.0057,0.0068,0.0028,0.0018,-0.0008,-0.0044,-0.0032,0.0022,-0.0065,-0.0067,-0.0014,0.0072,0.0034,0.004,-0.0009,-0.0008,-0.0007,0.0088,0,-0.0084,-0.0063,-0.0034,-0.0013,-0.0003,0.0024,0.0045,0.0063,0.0079,0.0099,0.0087,0.0079,0.0042,0.0033,0.0043,0.0037,0.0046,0.0002,0.0017,0.0018,-0.001,0.0049,0.0031,0.011,0.0097,0.0099,0.01,0,-0.0084,-0.0067,-0.0055,-0.0008,-0.0002,0.0015,0.0068,0.0083,0.0122,0.0132,0.0148,0.0138,0.0171,0.0117,0.0161,0.0136,0.0104,0.0098,0.0101,0.0046,-0.0004,0.0064,0.0127,-0.0062,0.0114,0.0113,0.0112,0,-0.01,-0.007,-0.0055,-0.0047,-0.0005,0.0013,0.0044,0.0088,0.0125,0.0159,0.0214,0.0219,0.0275,0.024,0.0249,0.02,0.0304,0.0225,0.0163,0.0162,0.0139,0.0132,0.0031,0.0223,0.0223,0.0223,0.0223,0,-0.0107,-0.0109,-0.0062,-0.0059,-0.0036,0.0,0.0042,0.0074,0.0149,0.0263,0.0229,0.0362,0.0311,0.037,0.0303,0.0308,0.035,0.0198,0.0185,0.0165,0.0159,-0.0015,-0.0134,0.0226,0.0226,0.0225,0.0224,0,-0.017,-0.0126,-0.0122,-0.0072,-0.0046,-0.0043,0.0054,0.0113,0.0179,0.0342,0.0372,0.0499,0.0613,0.0549,0.055,0.0421,0.028,0.0347,0.0343,0.0325,0.0031,-0.0082,-0.018,-0.0234,0.0283,0.0282,0.0282,0,-0.0244,-0.0232,-0.0152,-0.011,-0.0095,-0.0053,0.0018,0.0102,0.0225,0.0491,0.0617,0.0751,0.0955,0.0917,0.0693,0.0553,0.0351,0.0356,0.0223,0.0034,-0.0101,-0.0187,-0.0231,0.0244,0.0244,0.0243,0.0243,0,-0.0399,-0.0338,-0.0295,-0.0157,-0.0078,0.003,0.0171,0.0294,0.0502,0.0724,0.1115,0.1296,0.1236,0.1136,0.0824,0.0676,0.0196,0.0337,0.0145,-0.0134,-0.0234,-0.0296,0.0177,0.0238,0.0239,0.0239,0.0239,0.024,-0.0516,-0.049,-0.0334,-0.0187,-0.004,0.0228,0.0403,0.0644,0.0973,0.1435,0.1519,0.1857,0.1477,0.1095,0.0823,0.0195,0.0209,-0.0019,-0.0128,-0.0187,-0.0293,0.0176,0.0201,0.0201,0.0201,0.0201,0.0201,0,-0.0604,-0.0474,-0.0358,-0.0067,0.0226,0.0286,0.0618,0.0889,0.1412,0.1739,0.2113,0.2072,0.1635,0.1069,0.0216,-0.0205,-0.0347,-0.0437,-0.0572,-0.0584,-0.0154,-0.0215,-0.0285,-0.0285,-0.0285,-0.0285,-0.0284,-0.0284,-0.0628,-0.0487,-0.0344,0.0169,0.0432,0.085,0.1106,0.1498,0.179,0.2278,0.2438,0.2488,0.1968,0.0508,-0.0453,-0.0656,-0.0926,-0.101,-0.1102,-0.0854,-0.0824,-0.0796,-0.0882,-0.1091,-0.1092,-0.1477,-0.1481,-0.1485]}],[{"header":{"parameterUnit":"m.s-1","parameterCategory":2,"la1":30.2991,"la2":30.254,"lo1":-89.0895,"lo2":-89.0444,"dy":0.0017,"dx":0.0017,"nx":28,"ny":28,"refTime":"2025-01-24T09:00:00:Z","depth":"2","parameterNumber":2,"parameterNumberName":"U-component_of_CURRENTS"},"data":[0,0,0,0,0,0,0,0,0,0,0,0,0,0,0,0,0,0,0,0,0,0,0,0,0,0,0,0,0,0,0,0,0,0,0,0,0,0,0,0,0,0,0,0,0,0,0,0,0,0,0,0,0,0,0,0,0,0,0.2561,0.2562,0,0.263,0.263,0.2631,0.2646,0.2646,0.2645,0.2645,0.2641,0.2642,0.2642,0,0,0,0,0,0,0,0,0,0,0,0,0,0.2511,0.2511,0.2561,0.2562,0.2563,0.263,0.2631,0.2631,0.2646,0.2645,0.2645,0.2644,0.2641,0.2641,0.2642,0,0,0,0,0,0,0,0,0,0,0,0,0,0.2551,0.2511,0.2561,0.2578,0.2581,0.2629,0.2631,0.2632,0.2646,0.2645,0.2645,0.2644,0.2641,0.2641,0.2642,0.2659,0,0,0.2644,0.2644,0,0,0,0,0,0,0,0,0.2548,0.2553,0.2575,0.2577,0.258,0.2629,0.2612,0.2637,0.2646,0.2621,0.2645,0.2644,0.2631,0.2632,0.2647,0.2659,0.2659,0.2644,0.2644,0.2644,0.2644,0,0,0,0,0,0,0,0.2546,0.255,0.2588,0.2576,0.2579,0.2607,0.2611,0.2617,0.2627,0.2623,0.2624,0.2633,0.2632,0.2647,0.2647,0.2659,0.2644,0.2644,0.2644,0.2645,0.2741,0.2743,0,0,0,0,0,0,0.2535,0.2547,0.2585,0.259,0.2563,0.2608,0.2612,0.2614,0.2629,0.2631,0.2633,0.2633,0.2646,0.2647,0.2647,0.2733,0.2644,0.2645,0.2645,0.2739,0.2742,0.2744,0,0,0,0,0,0,0.2534,0.2538,0.2583,0.2571,0.2579,0.2609,0.261,0.2615,0.2637,0.2638,0.2639,0.265,0.2646,0.2646,0.2668,0.273,0.2645,0.2645,0.2736,0.274,0.2743,0.2864,0,0,0,0,0,0,0.2532,0.2537,0.2548,0.257,0.2579,0.2618,0.2611,0.2617,0.2643,0.2643,0.2652,0.2651,0.2645,0.2668,0.2669,0.273,0.2646,0.2733,0.2738,0.2742,0.2857,0.2871,0.2883,0,0,0,0,0,0.253,0.2559,0.2548,0.2554,0.2588,0.2619,0.2627,0.2646,0.2644,0.2661,0.267,0.2651,0.2696,0.267,0.2671,0.2733,0.2731,0.2736,0.2741,0.2851,0.2868,0.2882,0,0,0,0,0,0,0.2548,0.2564,0.2552,0.2584,0.2597,0.2622,0.2664,0.2653,0.2676,0.2687,0.2671,0.2672,0.2721,0.2703,0.2674,0.2773,0.2714,0.272,0.2797,0.2813,0.2826,0.2867,0.2646,0,0,0,0,0,0.2553,0.2579,0.2583,0.2611,0.2629,0.2642,0.2662,0.2664,0.2683,0.2693,0.2699,0.2715,0.2744,0.2756,0.2773,0.2816,0.2851,0.2859,0.2872,0.2883,0.2918,0.3013,0.3039,0.2761,0.2761,0.276,0,0,0.2575,0.2582,0.2602,0.2617,0.2645,0.2678,0.2655,0.2696,0.2724,0.2689,0.2749,0.2759,0.2765,0.2827,0.2847,0.2817,0.2983,0.2889,0.2899,0.2928,0.3022,0.3049,0.3074,0.2764,0.2763,0.2763,0,0,0.2618,0.2637,0.2664,0.2682,0.2709,0.2725,0.2733,0.276,0.2781,0.2827,0.282,0.2875,0.2898,0.2936,0.2952,0.3045,0.3049,0.3036,0.3138,0.3231,0.3255,0.3277,0.3373,0.3403,0.3042,0.3042,0.3043,0,0.263,0.2656,0.2679,0.2705,0.2734,0.2746,0.2779,0.2813,0.2838,0.2885,0.2864,0.2968,0.297,0.3063,0.3103,0.3082,0.3125,0.3077,0.3251,0.3273,0.3294,0.3386,0.3417,0.3049,0.3048,0.3047,0.3047,0,0.268,0.2706,0.2739,0.2772,0.2812,0.2849,0.2889,0.2951,0.2984,0.3013,0.3114,0.3129,0.3201,0.3206,0.3189,0.333,0.3312,0.3258,0.3216,0.333,0.3419,0.345,0.3058,0.3056,0.3054,0.3052,0,0,0.2705,0.275,0.2769,0.2795,0.2845,0.2893,0.2985,0.3071,0.3161,0.3204,0.331,0.3384,0.3404,0.3424,0.3406,0.3482,0.367,0.3439,0.3441,0.3545,0.3889,0.3753,0.3772,0.3639,0.3644,0.3648,0.3901,0,0.2729,0.2771,0.2799,0.2886,0.2925,0.2993,0.3073,0.3167,0.3256,0.3369,0.3425,0.3509,0.3476,0.3518,0.36,0.3651,0.3752,0.3608,0.3756,0.3762,0.3634,0.3803,0.3431,0.3613,0.393,0.3935,0.3938,0,0.2774,0.2796,0.2849,0.2944,0.2975,0.3038,0.3223,0.3291,0.3455,0.3532,0.3652,0.3671,0.3815,0.3738,0.3949,0.3856,0.3906,0.3933,0.3942,0.3797,0.3681,0.3547,0.3655,0.3989,0.3985,0.3981,0.3978,0,0.2802,0.2858,0.2898,0.2926,0.3023,0.3107,0.3188,0.3355,0.3443,0.3644,0.3756,0.3881,0.3999,0.4065,0.4144,0.4066,0.4351,0.4244,0.4177,0.4168,0.3874,0.3828,0.441,0.4409,0.4409,0.4408,0.4407,0,0.2808,0.2875,0.2918,0.2963,0.3061,0.3131,0.3288,0.3415,0.3566,0.3708,0.3834,0.3964,0.4094,0.4237,0.4241,0.4335,0.4454,0.4257,0.4243,0.3903,0.3859,0.418,0.415,0.4417,0.4415,0.4413,0.4412,0,0.2812,0.2847,0.2937,0.3038,0.3077,0.3165,0.3321,0.3425,0.3609,0.3808,0.3872,0.4109,0.4308,0.44,0.4561,0.4502,0.4549,0.454,0.4139,0.4071,0.428,0.4254,0.4508,0.4505,0.4503,0.4502,0.45,0,0.2794,0.2825,0.2972,0.3033,0.3079,0.32,0.3272,0.3437,0.3522,0.3877,0.3935,0.4223,0.4345,0.4548,0.4481,0.4497,0.4587,0.4187,0.3956,0.434,0.4301,0.4277,0.4254,0.3635,0.3627,0.362,0.3615,0,0.2768,0.2846,0.2903,0.3029,0.313,0.3217,0.3321,0.3372,0.3591,0.3753,0.3967,0.4092,0.4296,0.4136,0.419,0.4128,0.4136,0.4046,0.4612,0.3638,0.3529,0.3486,0.349,0.3554,0.356,0.3564,0.3568,0.357,0.2808,0.2844,0.2959,0.3052,0.3133,0.3215,0.3228,0.3307,0.3423,0.3554,0.3772,0.3832,0.3881,0.3717,0.3615,0.3553,0.3808,0.363,0.3647,0.3672,0.3497,0.3386,0.3355,0.3359,0.3363,0.3367,0.337,0,0.2852,0.2967,0.2986,0.3139,0.3141,0.3221,0.3231,0.3142,0.317,0.3312,0.3391,0.314,0.3032,0.3101,0.2873,0.2861,0.2793,0.2779,0.2649,0.2713,0.2769,0.2541,0.215,0.2146,0.2142,0.2139,0,0,0.3003,0.3058,0.3012,0.3087,0.3156,0.3087,0.3047,0.2906,0.2853,0.2764,0.2741,0.2885,0.3004,0.253,0.2465,0.2275,0.248,0.2194,0.3176,0.3088,0.3139,0.3268,0.2991,0,0,0,0,0]},{"header":{"parameterUnit":"m.s-1","parameterCategory":2,"la1":30.2991,"la2":30.254,"lo1":-89.0895,"lo2":-89.0444,"dy":0.0017,"dx":0.0017,"nx":28,"ny":28,"refTime":"2025-01-24T09:00:00:Z","depth":"2","parameterNumber":3,"parameterNumberName":"V-component_of_CURRENTS"},"data":[0,0,0,0,0,0,0,0,0,0,0,0,0,0,0,0,0,0,0,0,0,0,0,0,0,0,0,0,0,0,0,0,0,0,0,0,0,0,0,0,0,0,0,0,0,0,0,0,0,0,0,0,0,0,0,0,0,0,0.0285,0.0285,0,0.0234,0.0233,0.0233,0.0188,0.0187,0.0187,0.0187,0.0126,0.0125,0.0124,0,0,0,0,0,0,0,0,0,0,0,0,0,0.028,0.0281,0.0285,0.0285,0.0284,0.0234,0.0233,0.0233,0.0188,0.0187,0.0187,0.0186,0.0127,0.0125,0.0124,0,0,0,0,0,0,0,0,0,0,0,0,0,0.026,0.0281,0.0285,0.0257,0.0254,0.0234,0.0233,0.0232,0.0188,0.0187,0.0187,0.0186,0.0127,0.0125,0.0124,0.0122,0,0,0.0118,0.0117,0,0,0,0,0,0,0,0,0.0261,0.026,0.0262,0.0259,0.0256,0.0218,0.021,0.0196,0.0188,0.0211,0.0187,0.0186,0.0158,0.0154,0.0142,0.0119,0.0117,0.0118,0.0116,0.0116,0.0115,0,0,0,0,0,0,0,0.0262,0.0261,0.0263,0.0262,0.0258,0.0226,0.0223,0.0206,0.0186,0.0209,0.0206,0.0204,0.0156,0.0144,0.0141,0.0116,0.0118,0.0116,0.0115,0.0114,0.0074,0.0074,0,0,0,0,0,0,0.0277,0.0263,0.0265,0.0262,0.0259,0.0227,0.0223,0.0229,0.0187,0.018,0.0204,0.0202,0.0148,0.0143,0.0138,0.0137,0.0116,0.0114,0.0113,0.0073,0.0074,0.0074,0,0,0,0,0,0,0.0277,0.0278,0.0267,0.0262,0.0259,0.0228,0.0235,0.0229,0.0218,0.0183,0.0176,0.0201,0.0147,0.0141,0.0126,0.0134,0.0113,0.0111,0.0073,0.0073,0.0074,0.0132,0,0,0,0,0,0,0.0277,0.0278,0.0285,0.0263,0.0259,0.0266,0.0236,0.0228,0.0218,0.0215,0.0178,0.0172,0.0146,0.0129,0.0124,0.0131,0.011,0.0073,0.0073,0.0074,0.013,0.0135,0.0138,0,0,0,0,0,0.0277,0.0293,0.0286,0.0286,0.0271,0.0267,0.0262,0.0236,0.0219,0.0223,0.0193,0.0173,0.0126,0.0128,0.0122,0.0129,0.0073,0.0073,0.0074,0.0129,0.0134,0.0138,0,0,0,0,0,0,0.0292,0.0289,0.0281,0.0294,0.0286,0.026,0.0259,0.0242,0.022,0.0215,0.0177,0.017,0.0157,0.0135,0.0138,0.0116,0.0095,0.0094,0.0139,0.0144,0.0147,0.0186,0.0108,0,0,0,0,0,0.0301,0.0312,0.0302,0.0312,0.0311,0.0286,0.0279,0.0265,0.0245,0.0234,0.0206,0.0176,0.0153,0.0143,0.0119,0.0113,0.0095,0.0111,0.0115,0.0118,0.0145,0.0116,0.012,0.0074,0.0074,0.0074,0,0,0.0308,0.0309,0.0313,0.0316,0.0304,0.0319,0.028,0.0279,0.0292,0.0232,0.0233,0.019,0.0153,0.0142,0.0134,0.0126,0.0119,0.0119,0.0122,0.0147,0.0117,0.0121,0.0125,0.0074,0.0074,0.0074,0,0,0.0342,0.0331,0.0359,0.0363,0.036,0.0341,0.0346,0.0325,0.0316,0.0307,0.0266,0.0233,0.0198,0.0174,0.0158,0.017,0.0139,0.0155,0.0211,0.0182,0.0186,0.0189,0.0166,0.0167,0.016,0.016,0.016,0,0.0359,0.0395,0.0365,0.0399,0.0417,0.0358,0.0402,0.0378,0.0354,0.0362,0.0317,0.0263,0.0216,0.0218,0.021,0.0181,0.0163,0.0197,0.0189,0.0192,0.0194,0.0169,0.017,0.0163,0.0162,0.0162,0.0162,0,0.0425,0.0453,0.0469,0.0495,0.05,0.0526,0.0502,0.0492,0.0458,0.044,0.0424,0.0348,0.0323,0.0287,0.0248,0.0248,0.0228,0.0195,0.0182,0.0203,0.0174,0.0174,0.0167,0.0166,0.0165,0.0164,0,0,0.0476,0.0516,0.0523,0.0577,0.0565,0.0594,0.0591,0.0603,0.0636,0.0558,0.0602,0.0501,0.0452,0.043,0.0367,0.0327,0.0302,0.0274,0.027,0.0261,0.0245,0.0195,0.0188,0.0267,0.0267,0.0268,0.0216,0,0.0549,0.0646,0.0637,0.073,0.0782,0.0746,0.0775,0.0768,0.0727,0.0744,0.0646,0.0647,0.051,0.0505,0.0436,0.0353,0.0304,0.032,0.0219,0.0217,0.0177,0.0187,0.0196,0.0148,0.0215,0.0215,0.0215,0,0.0623,0.0686,0.0791,0.0894,0.0919,0.0964,0.1015,0.1044,0.1015,0.0982,0.0918,0.0839,0.0766,0.0653,0.049,0.0508,0.0385,0.0297,0.0292,0.0232,0.0165,0.0138,0.0144,0.0213,0.0213,0.0213,0.0214,0,0.0696,0.0802,0.09,0.0932,0.1014,0.1077,0.1134,0.1127,0.1182,0.115,0.1152,0.1031,0.1003,0.0818,0.0581,0.0549,0.0413,0.0348,0.0184,0.0179,0.0163,0.0156,0.0242,0.0242,0.0242,0.0242,0.0242,0,0.0791,0.0875,0.0959,0.1026,0.1189,0.1212,0.1375,0.1369,0.1406,0.1479,0.1304,0.1302,0.1043,0.0905,0.0668,0.0426,0.0468,0.0209,0.0167,0.018,0.0176,0.0214,0.0212,0.024,0.0241,0.0241,0.0241,0,0.0885,0.0899,0.1047,0.1178,0.1229,0.1369,0.1557,0.1666,0.1641,0.172,0.1715,0.1548,0.1345,0.106,0.0795,0.0565,0.0329,0.023,0.0263,0.0224,0.0093,0.0094,0.0056,0.0054,0.0052,0.005,0.0049,0,0.0977,0.1041,0.1196,0.1277,0.1356,0.156,0.17,0.1778,0.1877,0.1852,0.1897,0.1726,0.1578,0.116,0.0755,0.0359,0.0318,0.0135,0.0057,0.0114,0.0076,0.008,0.0083,0.0056,0.0055,0.0054,0.0053,0,0.1191,0.1204,0.1324,0.1446,0.16,0.1798,0.1993,0.2095,0.2162,0.2181,0.2142,0.2022,0.16,0.1182,0.0663,0.0395,0.0191,0.0102,0.0174,0.0096,0.0108,0.0073,0.0077,0.0045,0.0046,0.0047,0.0047,0.0047,0.1375,0.1487,0.1565,0.1644,0.1786,0.1944,0.2128,0.2268,0.2398,0.2362,0.2299,0.2087,0.1665,0.0937,0.0524,0.0107,0.0114,-0.0042,-0.0037,-0.0031,-0.0027,-0.002,-0.0105,-0.0105,-0.0105,-0.0106,-0.0106,0,0.1654,0.1649,0.1756,0.1855,0.1947,0.1997,0.224,0.2354,0.2468,0.2429,0.2346,0.1869,0.1417,0.0952,0.0309,-0.0068,-0.0086,-0.0167,-0.011,-0.01,-0.0092,-0.0089,-0.0185,-0.0186,-0.0187,-0.0188,0,0,0.1784,0.1882,0.184,0.1909,0.1971,0.2172,0.2293,0.2383,0.241,0.2319,0.2191,0.1998,0.1478,0.1002,0.0504,0.0159,0.0118,0.0093,0.0191,0.0325,0.0339,0.0007,0.0025,0,0,0,0,0]}],[{"header":{"parameterUnit":"m.s-1","parameterCategory":2,"la1":30.2991,"la2":30.254,"lo1":-89.0895,"lo2":-89.0444,"dy":0.0017,"dx":0.0017,"nx":28,"ny":28,"refTime":"2025-01-24T09:00:00:Z","depth":"4","parameterNumber":2,"parameterNumberName":"U-component_of_CURRENTS"},"data":[0,0,0,0,0,0,0,0,0,0,0,0,0,0,0,0,0,0,0,0,0,0,0,0,0,0,0,0,0,0,0,0,0,0,0,0,0,0,0,0,0,0,0,0,0,0,0,0,0,0,0,0,0,0,0,0,0,0,0.1493,0.1494,0,0.1568,0.1569,0.157,0.1623,0.1623,0.1624,0.1624,0.1698,0.1699,0.1701,0,0,0,0,0,0,0,0,0,0,0,0,0,0.1396,0.1398,0.1493,0.1494,0.1495,0.1568,0.1569,0.157,0.1623,0.1623,0.1624,0.1625,0.1697,0.1699,0.1701,0,0,0,0,0,0,0,0,0,0,0,0,0,0.145,0.1398,0.1493,0.1531,0.1535,0.1568,0.1569,0.157,0.1623,0.1623,0.1624,0.1625,0.1697,0.1699,0.1701,0.1699,0,0,0.1708,0.1709,0,0,0,0,0,0,0,0,0.1447,0.1454,0.1524,0.1528,0.1533,0.1588,0.1562,0.1613,0.1622,0.1588,0.1624,0.1625,0.1661,0.1666,0.1677,0.1702,0.1706,0.1708,0.1709,0.171,0.1711,0,0,0,0,0,0,0,0.1443,0.1451,0.1521,0.1525,0.1531,0.1545,0.1553,0.1572,0.1618,0.1591,0.1596,0.1605,0.1663,0.1675,0.1679,0.1707,0.1708,0.171,0.1711,0.1712,0.1825,0.1827,0,0,0,0,0,0,0.1436,0.1447,0.1519,0.1524,0.1492,0.1546,0.1555,0.1569,0.1618,0.1627,0.1605,0.1608,0.1671,0.1677,0.1682,0.1771,0.171,0.1712,0.1714,0.1823,0.1825,0.1827,0,0,0,0,0,0,0.1433,0.1441,0.1516,0.1488,0.1499,0.1547,0.1561,0.157,0.162,0.1629,0.1637,0.1651,0.1671,0.1679,0.1736,0.1771,0.1713,0.1715,0.1821,0.1824,0.1826,0.1892,0,0,0,0,0,0,0.143,0.144,0.1463,0.1487,0.15,0.1558,0.1561,0.1571,0.1623,0.1629,0.167,0.1676,0.1673,0.1732,0.1738,0.1773,0.1717,0.1819,0.1822,0.1825,0.1887,0.1896,0.1904,0,0,0,0,0,0.1427,0.1438,0.1463,0.1473,0.1524,0.1559,0.1567,0.1603,0.1625,0.1651,0.1686,0.1677,0.1756,0.1736,0.1742,0.1778,0.1818,0.1822,0.1825,0.1884,0.1894,0.1903,0,0,0,0,0,0,0.1403,0.1446,0.1474,0.1499,0.1542,0.1569,0.1593,0.1626,0.1675,0.1689,0.1702,0.171,0.1774,0.1767,0.1745,0.1819,0.1784,0.1789,0.1826,0.1836,0.1844,0.185,0.1719,0,0,0,0,0,0.141,0.1441,0.1481,0.151,0.1527,0.1573,0.1599,0.1629,0.1666,0.1691,0.1725,0.1756,0.1787,0.1807,0.1831,0.1872,0.188,0.1898,0.1906,0.1913,0.1922,0.1995,0.2011,0.1839,0.1839,0.1839,0,0,0.1411,0.144,0.1459,0.151,0.1541,0.1574,0.1591,0.1638,0.1678,0.1689,0.1761,0.1794,0.1807,0.1856,0.1883,0.1859,0.196,0.1917,0.1923,0.1929,0.2001,0.2018,0.2033,0.1842,0.1842,0.1841,0,0,0.1414,0.1453,0.1476,0.1514,0.1573,0.1597,0.1621,0.1678,0.1716,0.178,0.1805,0.1865,0.1905,0.193,0.1942,0.2009,0.2007,0.2018,0.206,0.2131,0.2146,0.2159,0.2163,0.2176,0.2015,0.2015,0.2015,0,0.1414,0.1446,0.149,0.1523,0.1553,0.1611,0.1642,0.1686,0.1764,0.1808,0.181,0.1919,0.1935,0.2002,0.2028,0.2029,0.2052,0.202,0.2143,0.2156,0.2169,0.217,0.2183,0.2019,0.2018,0.2018,0.2018,0,0.1434,0.1467,0.1481,0.1542,0.1588,0.162,0.1683,0.175,0.1803,0.1852,0.1951,0.1985,0.2052,0.2065,0.2066,0.2167,0.2147,0.2151,0.2118,0.219,0.2186,0.2199,0.2024,0.2023,0.2022,0.2021,0,0,0.1397,0.1475,0.1482,0.1518,0.1598,0.1635,0.1712,0.1793,0.1864,0.1939,0.2029,0.2089,0.2139,0.2156,0.218,0.2235,0.2333,0.2239,0.2241,0.2241,0.246,0.2309,0.2308,0.2376,0.2379,0.2382,0.2409,0,0.1393,0.1441,0.1489,0.155,0.1579,0.1663,0.173,0.1829,0.1908,0.2015,0.208,0.2177,0.2162,0.2223,0.2275,0.234,0.2377,0.2322,0.239,0.2391,0.225,0.2322,0.2393,0.2419,0.2422,0.2424,0.2426,0,0.1387,0.1424,0.1469,0.1561,0.1584,0.1646,0.178,0.1853,0.2007,0.2075,0.2184,0.2256,0.2367,0.2346,0.246,0.2436,0.2455,0.2477,0.2479,0.2328,0.2266,0.234,0.2449,0.2448,0.2446,0.2444,0.2443,0,0.1329,0.1407,0.1441,0.1473,0.1588,0.1655,0.1738,0.1888,0.197,0.2152,0.2234,0.2358,0.2456,0.251,0.2573,0.2541,0.2684,0.2637,0.2498,0.2485,0.2582,0.2568,0.2711,0.2711,0.2711,0.2711,0.2711,0,0.1279,0.1315,0.1431,0.1451,0.1533,0.1644,0.1764,0.1862,0.2031,0.2133,0.2277,0.2366,0.2519,0.2617,0.2622,0.2605,0.2724,0.2515,0.25,0.2602,0.259,0.2589,0.2574,0.2712,0.2712,0.2712,0.2712,0,0.1196,0.1263,0.1311,0.1441,0.1503,0.157,0.1772,0.1853,0.2024,0.2166,0.2241,0.2433,0.2546,0.2645,0.2758,0.2662,0.2669,0.2632,0.2725,0.2713,0.2389,0.2378,0.2438,0.2433,0.2429,0.2426,0.2423,0,0.1128,0.1155,0.1291,0.1342,0.1408,0.1549,0.1641,0.1831,0.1921,0.217,0.2214,0.242,0.2521,0.255,0.2647,0.2646,0.2615,0.258,0.2475,0.2391,0.2371,0.2365,0.236,0.2416,0.2415,0.2414,0.2413,0,0.1004,0.1079,0.1138,0.1247,0.1344,0.1442,0.1597,0.1664,0.1878,0.2045,0.2175,0.2259,0.238,0.2458,0.2513,0.2494,0.2582,0.2536,0.2542,0.2443,0.2366,0.2349,0.2348,0.24,0.2402,0.2403,0.2404,0,0.0913,0.0936,0.1035,0.1136,0.1247,0.1309,0.1415,0.1553,0.1673,0.1957,0.1997,0.219,0.2378,0.2378,0.2412,0.2412,0.2333,0.2226,0.2246,0.2262,0.2192,0.2067,0.2008,0,0,0,0,0,0.0789,0.0838,0.092,0.1016,0.1132,0.1198,0.1367,0.148,0.1705,0.1748,0.1881,0.1987,0.2073,0.2168,0.2124,0.2269,0.231,0.22,0.2189,0.2323,0.2339,0.2272,0,0,0,0,0,0,0.0718,0.0781,0.0862,0.0902,0.0971,0.1064,0.1167,0.1318,0.1374,0.1615,0.1687,0.1847,0.1966,0.2089,0.2085,0.2106,0.2049,0.2319,0.2313,0.2314,0.2328,0.2341,0.2278,0,0,0,0,0]},{"header":{"parameterUnit":"m.s-1","parameterCategory":2,"la1":30.2991,"la2":30.254,"lo1":-89.0895,"lo2":-89.0444,"dy":0.0017,"dx":0.0017,"nx":28,"ny":28,"refTime":"2025-01-24T09:00:00:Z","depth":"4","parameterNumber":3,"parameterNumberName":"V-component_of_CURRENTS"},"data":[0,0,0,0,0,0,0,0,0,0,0,0,0,0,0,0,0,0,0,0,0,0,0,0,0,0,0,0,0,0,0,0,0,0,0,0,0,0,0,0,0,0,0,0,0,0,0,0,0,0,0,0,0,0,0,0,0,0,0.0287,0.0287,0,0.0268,0.0268,0.0268,0.0256,0.0256,0.0257,0.0257,0.0232,0.0231,0.023,0,0,0,0,0,0,0,0,0,0,0,0,0,0.0278,0.0278,0.0287,0.0287,0.0287,0.0268,0.0268,0.0268,0.0256,0.0256,0.0257,0.0257,0.0232,0.0231,0.023,0,0,0,0,0,0,0,0,0,0,0,0,0,0.0272,0.0278,0.0287,0.028,0.0279,0.0268,0.0268,0.0268,0.0256,0.0256,0.0257,0.0257,0.0232,0.0231,0.023,0.0222,0,0,0.0227,0.0226,0,0,0,0,0,0,0,0,0.0272,0.0272,0.0281,0.028,0.028,0.0266,0.0256,0.0252,0.0256,0.0264,0.0257,0.0257,0.0243,0.0241,0.0236,0.0221,0.022,0.0227,0.0226,0.0226,0.0225,0,0,0,0,0,0,0,0.0273,0.0273,0.0279,0.0281,0.028,0.0265,0.0265,0.0255,0.0252,0.0263,0.0263,0.0262,0.0243,0.0237,0.0235,0.0219,0.0227,0.0226,0.0225,0.0225,0.0205,0.0205,0,0,0,0,0,0,0.0279,0.0273,0.0279,0.0278,0.0277,0.0266,0.0265,0.0269,0.0253,0.025,0.0262,0.0262,0.0239,0.0237,0.0234,0.024,0.0226,0.0225,0.0224,0.0205,0.0205,0.0205,0,0,0,0,0,0,0.0279,0.028,0.028,0.0276,0.0275,0.0266,0.0271,0.0269,0.0269,0.0252,0.025,0.0266,0.0239,0.0236,0.0233,0.0238,0.0224,0.0223,0.0205,0.0205,0.0205,0.0241,0,0,0,0,0,0,0.0279,0.028,0.0286,0.0276,0.0275,0.0283,0.0271,0.0268,0.0269,0.0269,0.0254,0.0252,0.0239,0.0234,0.0232,0.0237,0.0222,0.0205,0.0205,0.0205,0.024,0.0242,0.0245,0,0,0,0,0,0.0279,0.029,0.0286,0.0287,0.0284,0.0283,0.0281,0.0274,0.027,0.0274,0.0263,0.0252,0.0233,0.0234,0.023,0.0235,0.0205,0.0205,0.0205,0.0238,0.0242,0.0245,0,0,0,0,0,0,0.0286,0.029,0.0285,0.0297,0.0293,0.0282,0.0287,0.0279,0.0273,0.0274,0.0256,0.0252,0.025,0.0238,0.0238,0.0229,0.0216,0.0216,0.0243,0.0246,0.0248,0.0265,0.0221,0,0,0,0,0,0.0291,0.0303,0.0298,0.0306,0.0308,0.0298,0.0297,0.0292,0.0285,0.0283,0.0271,0.0258,0.0247,0.0244,0.0232,0.0229,0.0194,0.0229,0.0232,0.0234,0.0245,0.0188,0.0186,0.0206,0.0206,0.0206,0,0,0.03,0.03,0.0308,0.0309,0.0307,0.0322,0.0298,0.0303,0.0314,0.0281,0.0292,0.0267,0.0248,0.0244,0.0242,0.0237,0.0207,0.0234,0.0236,0.0246,0.0188,0.0186,0.0184,0.0206,0.0206,0.0206,0,0,0.0328,0.0321,0.0346,0.0347,0.0348,0.034,0.0345,0.0337,0.0333,0.0335,0.0312,0.0291,0.0281,0.0263,0.0253,0.0262,0.0221,0.0259,0.0287,0.0232,0.023,0.0228,0.0168,0.016,0.0261,0.0262,0.0262,0,0.0343,0.0368,0.0351,0.0375,0.0387,0.0354,0.0386,0.0373,0.0364,0.0361,0.0346,0.031,0.029,0.0278,0.0282,0.0268,0.0229,0.0278,0.0235,0.0232,0.0229,0.0169,0.016,0.0263,0.0263,0.0263,0.0263,0,0.0394,0.0413,0.0427,0.0449,0.0454,0.0472,0.0459,0.0456,0.044,0.0421,0.04,0.0358,0.0337,0.0321,0.0308,0.0281,0.0257,0.0243,0.0228,0.0229,0.0165,0.0155,0.0266,0.0265,0.0265,0.0264,0,0,0.0445,0.0465,0.0473,0.0498,0.0498,0.0513,0.0522,0.0522,0.0527,0.0487,0.0485,0.0443,0.0403,0.0389,0.0352,0.0304,0.0242,0.0273,0.027,0.0216,0.0114,0.0105,0.0092,0.0218,0.0217,0.0216,0.0073,0,0.0499,0.0557,0.0553,0.0609,0.0638,0.0616,0.0633,0.0621,0.0586,0.0568,0.05,0.0484,0.0433,0.0423,0.0362,0.0278,0.0219,0.0282,0.012,0.0115,0.0108,0.0082,0.0212,0.0065,0.0063,0.0061,0.006,0,0.0561,0.0589,0.0659,0.0694,0.0708,0.0742,0.0755,0.0764,0.0714,0.0685,0.0627,0.0565,0.0495,0.0452,0.0287,0.0329,0.0231,0.0154,0.0146,0.0123,0.0088,0.0065,0.0041,0.0042,0.0044,0.0045,0.0046,0,0.0614,0.0666,0.0727,0.0742,0.0774,0.0813,0.0837,0.081,0.0826,0.0764,0.0746,0.0632,0.0589,0.0445,0.0276,0.0282,0.0084,0.0068,-0.004,-0.0042,-0.0007,-0.0003,-0.005,-0.0049,-0.0049,-0.0049,-0.0048,0,0.0672,0.0725,0.0765,0.0805,0.0884,0.0887,0.096,0.0945,0.0935,0.0943,0.0822,0.0779,0.0587,0.0443,0.0286,0.0087,0.0082,-0.004,-0.0079,0.001,0.0018,-0.0015,-0.0009,-0.0054,-0.0053,-0.0052,-0.0051,0,0.0724,0.0749,0.0828,0.0889,0.0918,0.0984,0.1072,0.1104,0.1077,0.1077,0.1067,0.0899,0.0698,0.0484,0.024,0.0113,-0.008,-0.0147,-0.0042,-0.0073,-0.0174,-0.0165,-0.0284,-0.0286,-0.0287,-0.0288,-0.0289,0,0.0758,0.08,0.0899,0.096,0.1005,0.1102,0.1164,0.1184,0.1208,0.1137,0.1129,0.0948,0.0806,0.0444,0.0218,-0.0097,-0.0133,-0.0229,-0.0197,-0.0172,-0.0199,-0.0187,-0.0176,-0.0291,-0.0291,-0.0292,-0.0292,0,0.0812,0.0852,0.0915,0.103,0.1123,0.1219,0.1306,0.1336,0.133,0.1307,0.1171,0.0966,0.0729,0.0439,0.0196,-0.0027,-0.0165,-0.0243,-0.0241,-0.0212,-0.0181,-0.0204,-0.0192,-0.0297,-0.0296,-0.0296,-0.0295,0,0.0856,0.0903,0.0979,0.1089,0.1203,0.1289,0.134,0.1356,0.1374,0.1289,0.1241,0.097,0.0822,0.0473,0.0244,0.0025,-0.0027,-0.0079,-0.0087,-0.0085,0.0018,0.0089,0.0019,0,0,0,0,0,0.0867,0.0917,0.1027,0.1133,0.1249,0.1307,0.14,0.1429,0.1423,0.1342,0.1296,0.1067,0.0698,0.0525,0.0304,0.0218,-0.0062,-0.0047,-0.0125,-0.0321,-0.0316,-0.0229,0,0,0,0,0,0,0.0869,0.0954,0.1014,0.1142,0.1224,0.1331,0.1395,0.1396,0.1349,0.131,0.1113,0.1017,0.0657,0.0819,0.0297,0.0228,0.0151,-0.0219,-0.0223,-0.0324,-0.0319,-0.0315,-0.0224,0,0,0,0,0]}]]